Regional Weather Roundup
Issued by NWS

Home | Current Version | Previous Version | Graphics & Text | Print | Product List | Glossary On
Versions: 1 2 3 4 5 6 7 8 9 10 11 12 13 14 15 16 17 18 19 20 21 22 23 24 25 26 27 28 29 30 31 32 33 34 35 36 37 38 39 40 41 42 43 44 45 46 47 48 49 50
000
ASUS43 KLMK 200310
RWRKY
KENTUCKY REGIONAL WEATHER ROUNDUP
NATIONAL WEATHER SERVICE LOUISVILLE KY
1100 PM EDT FRI SEP 19 2014

NOTE "FAIR" INDICATES FEW OR NO CLOUDS BELOW 12,000 FEET
WITH NO SIGNIFICANT WEATHER AND/OR OBSTRUCTIONS TO VISIBILITY.

KYZ001>023-026-027-061>063-070>075-200400-
WESTERN AND SOUTH CENTRAL KENTUCKY

CITY           SKY/WX    TMP DP  RH WIND       PRES   REMARKS
PADUCAH        CLEAR     65  61  87 CALM      30.02R
HENDERSON      CLEAR     57  54  88 CALM      30.04S
OWENSBORO      CLEAR     67  60  78 CALM      30.05R
HOPKINSVILLE   CLEAR     69  64  83 SE3       30.05R
BOWLING GREEN  CLEAR     67  61  81 CALM      30.07R
GLASGOW        CLEAR     65  60  83 CALM      30.07S
$$

KYZ024-025-028>034-038-045-046-053-200400-
NORTH CENTRAL KENTUCKY

CITY           SKY/WX    TMP DP  RH WIND       PRES   REMARKS
LOUISVILLE/SDF CLOUDY    68  56  65 SE3       30.07R
LOUISVILLE/LOU CLEAR     64  56  75 CALM      30.07S
FORT KNOX      CLEAR     63  58  84 E2        30.06S
$$

KYZ035>037-039>044-047>052-055>060-089>105-200400-
NORTHEAST KENTUCKY

CITY           SKY/WX    TMP DP  RH WIND       PRES   REMARKS
LEXINGTON      CLEAR     65  57  75 E5        30.10S
COVINGTON      PTCLDY    63  51  65 CALM      30.09S
FRANKFORT      CLEAR     60  55  83 CALM      30.08S
$$

KYZ054-064>069-076>088-106>120-200400-
SOUTHEAST KENTUCKY

CITY           SKY/WX    TMP DP  RH WIND       PRES   REMARKS
JACKSON        PTCLDY    68  62  81 SE5       30.13R
LONDON         CLEAR     63  59  87 CALM      30.12S
SOMERSET       CLEAR     63  61  94 CALM      30.11S
MIDDLESBORO    PTCLDY    65  61  88 CALM      30.16R
MONTICELLO     CLEAR     60  59  97 CALM      30.12R
$$



USA.gov is the U.S. government's official web portal to all federal, state and local government web resources and services.